Location: Ab? ar R?sh Ba?r?
(24.1861°N, 32.8847°E)
Time: 23:44:47
(UTC+00:00)

Cosmos 1844 Rocket - Pass Details

Date: 24 October 2021
Orbit: 826 x 843 km, 71.0° (Epoch: 05 December)

Event Time Altitude Azimuth Distance (km) Brightness Sun altitude
Rises 17:28:56 0° 341° (NNW) 3,361 6.1 -31.3°
Reaches altitude 10° 17:31:22 10° 340° (NNW) 2,426 5.3 -31.8°
Enters shadow 17:33:42 26° 339° (NNW) 1,570 4.2 -32.3°
